Temp
-10 -12 -14 -15 -18 -19 -19 -19 -20 -20 -19 -20 -20 -20 -20 -20 -20 -19 -19 -18 -18 -18 -17 -17 -17 -17 -17 -17 -17 -17 -17 -17 -17 -17 -17 -17 -17 -16 -16 -16 -16 -15 -14 -14 -15 -15 -16
-11 -13 -14 -16 -18 -19 -19 -19 -20 -20 -20 -20 -20 -20 -20 -20 -20 -19 -20 -19 -18 -18 -17 -17 -17 -18 -18 -18 -17 -17 -17 -17 -18 -17 -18 -18 -17 -17 -16 -16 -16 -15 -15 -15 -15 -15 -16
-11 -13 -14 -16 -18 -18 -19 -19 -19 -20 -19 -19 -19 -19 -20 -20 -20 -20 -20 -19 -19 -18 -18 -17 -17 -18 -18 -18 -18 -17 -17 -18 -18 -18 -18 -18 -18 -17 -17 -17 -16 -16 -15 -15 -15 -16 -16
-11 -13 -14 -16 -17 -18 -18 -19 -19 -19 -19 -19 -19 -19 -19 -20 -20 -19 -20 -19 -19 -18 -18 -18 -17 -18 -18 -18 -18 -18 -18 -18 -18 -18 -18 -18 -18 -18 -17 -17 -17 -16 -16 -15 -16 -16 -16
-12 -13 -14 -16 -17 -18 -18 -19 -19 -19 -19 -19 -19 -19 -19 -19 -19 -19 -19 -19 -19 -18 -18 -18 -18 -18 -18 -18 -18 -18 -18 -18 -18 -18 -18 -18 -18 -18 -17 -17 -17 -16 -16 -15 -16 -16 -16
-12 -13 -14 -15 -16 -18 -18 -18 -19 -19 -20 -19 -19 -19 -19 -19 -19 -19 -19 -19 -19 -19 -18 -18 -18 -18 -18 -18 -18 -18 -18 -18 -18 -18 -18 -18 -18 -18 -18 -17 -17 -17 -16 -16 -16 -16 -15
-12 -13 -14 -15 -16 -17 -18 -18 -19 -19 -19 -19 -20 -19 -19 -19 -19 -19 -20 -19 -19 -19 -18 -18 -18 -18 -19 -18 -19 -19 -18 -19 -19 -18 -18 -18 -18 -18 -18 -18 -18 -18 -17 -16 -16 -16 -16
-12 -13 -14 -15 -16 -17 -18 -19 -19 -19 -20 -19 -19 -19 -19 -19 -19 -19 -20 -19 -19 -19 -19 -19 -18 -18 -18 -19 -19 -19 -19 -19 -18 -18 -18 -18 -18 -19 -19 -19 -19 -18 -17 -17 -17 -17 -17
-12 -14 -14 -15 -16 -17 -17 -19 -19 -19 -20 -20 -20 -19 -19 -20 -20 -20 -20 -19 -19 -19 -19 -18 -18 -18 -19 -18 -19 -19 -19 -19 -19 -19 -19 -19 -19 -19 -19 -19 -19 -18 -18 -18 -17 -18 -18
-13 -14 -14 -15 -16 -17 -17 -18 -19 -19 -20 -20 -20 -20 -20 -20 -20 -20 -20 -20 -19 -19 -19 -19 -18 -18 -19 -18 -18 -18 -19 -19 -19 -19 -19 -19 -19 -19 -19 -19 -19 -19 -19 -19 -19 -18 -18
-13 -13 -14 -16 -17 -17 -17 -18 -19 -19 -20 -20 -20 -20 -20 -20 -20 -20 -20 -19 -19 -19 -19 -19 -18 -18 -18 -18 -18 -18 -19 -19 -19 -19 -19 -18 -19 -19 -18 -18 -19 -19 -19 -19 -19 -18 -18
-13 -14 -15 -16 -17 -17 -18 -18 -18 -19 -20 -20 -20 -20 -20 -20 -20 -20 -20 -20 -19 -19 -19 -19 -18 -18 -18 -18 -18 -18 -18 -18 -19 -19 -19 -19 -19 -19 -19 -19 -19 -20 -20 -20 -19 -19 -18
-13 -14 -15 -16 -17 -18 -18 -18 -18 -19 -19 -20 -20 -20 -20 -20 -20 -20 -20 -20 -20 -19 -19 -19 -19 -19 -18 -18 -18 -18 -18 -18 -18 -18 -18 -18 -18 -18 -19 -19 -19 -19 -19 -20 -19 -18 -16
-13 -14 -15 -16 -17 -18 -18 -19 -19 -19 -19 -19 -20 -20 -20 -20 -20 -20 -20 -20 -19 -19 -19 -19 -19 -19 -19 -18 -18 -18 -18 -18 -18 -19 -18 -19 -18 -18 -18 -19 -19 -18 -19 -18 -18 -17 -16
-14 -15 -16 -17 -17 -18 -18 -19 -19 -19 -19 -19 -20 -20 -20 -20 -20 -20 -20 -20 -20 -20 -20 -19 -19 -19 -19 -19 -18 -18 -17 -18 -18 -18 -18 -18 -18 -18 -19 -19 -19 -19 -18 -19 -19 -18 -18
-14 -15 -16 -18 -18 -19 -19 -19 -20 -20 -20 -20 -20 -20 -20 -21 -21 -20 -21 -21 -21 -20 -20 -19 -19 -19 -19 -19 -19 -19 -19 -18 -18 -18 -18 -18 -18 -18 -18 -19 -19 -19 -19 -19 -19 -19 -18
-15 -16 -17 -18 -18 -19 -19 -20 -20 -20 -20 -20 -20 -20 -21 -21 -21 -21 -21 -21 -21 -21 -21 -20 -20 -19 -20 -20 -19 -19 -19 -19 -19 -18 -18 -18 -18 -18 -18 -18 -18 -18 -18 -18 -19 -19 -18
-15 -16 -18 -18 -19 -19 -20 -20 -20 -21 -21 -21 -21 -21 -21 -21 -21 -22 -22 -22 -22 -22 -22 -21 -20 -21 -21 -20 -20 -20 -19 -19 -19 -20 -19 -18 -18 -18 -18 -18 -18 -18 -18 -19 -18 -18 -18
-16 -17 -18 -19 -20 -20 -20 -21 -21 -21 -21 -21 -21 -22 -22 -22 -22 -22 -22 -23 -22 -22 -22 -22 -22 -21 -21 -21 -21 -20 -20 -20 -20 -20 -19 -20 -19 -19 -18 -18 -18 -18 -18 -18 -18 -18 -18
-16 -18 -18 -19 -20 -20 -21 -21 -21 -22 -22 -22 -22 -22 -22 -22 -22 -22 -22 -23 -23 -23 -23 -23 -23 -22 -22 -21 -21 -21 -21 -20 -20 -20 -20 -20 -20 -19 -19 -19 -19 -18 -18 -18 -19 -19 -18
-17 -18 -19 -19 -20 -20 -21 -21 -21 -22 -22 -22 -22 -22 -22 -22 -23 -23 -23 -23 -23 -24 -23 -23 -23 -23 -23 -23 -22 -21 -21 -21 -21 -21 -20 -20 -20 -20 -20 -20 -19 -19 -19 -19 -19 -18 -18
-17 -18 -19 -19 -20 -20 -21 -21 -21 -22 -22 -23 -23 -23 -23 -23 -23 -23 -24 -24 -24 -24 -24 -24 -24 -23 -24 -23 -23 -23 -22 -21 -21 -20 -20 -20 -20 -20 -20 -20 -20 -19 -19 -19 -19 -19 -19
-17 -18 -19 -20 -20 -21 -21 -21 -22 -22 -23 -23 -23 -24 -24 -24 -24 -24 -24 -24 -24 -24 -24 -24 -24 -24 -24 -24 -23 -23 -23 -22 -21 -21 -21 -20 -20 -20 -20 -20 -20 -20 -19 -19 -19 -19 -19
-17 -18 -19 -20 -20 -21 -21 -22 -22 -22 -23 -24 -24 -24 -24 -24 -25 -25 -25 -25 -25 -25 -25 -25 -25 -24 -24 -24 -24 -23 -23 -23 -22 -22 -21 -21 -21 -21 -21 -21 -20 -20 -20 -20 -20 -20 -20
-18 -18 -19 -20 -21 -21 -22 -22 -23 -23 -23 -24 -25 -25 -25 -25 -25 -25 -25 -25 -25 -25 -25 -25 -25 -25 -25 -25 -24 -24 -23 -23 -23 -22 -22 -22 -21 -21 -21 -21 -20 -20 -20 -21 -21 -21 -21
-18 -19 -20 -21 -21 -22 -22 -23 -23 -24 -24 -25 -26 -26 -26 -26 -26 -26 -26 -26 -26 -26 -26 -26 -26 -26 -26 -25 -25 -24 -24 -23 -23 -23 -23 -23 -22 -21 -21 -20 -21 -21 -21 -21 -21 -21 -21
-19 -19 -20 -21 -22 -22 -23 -24 -24 -25 -25 -26 -27 -27 -27 -28 -27 -28 -27 -27 -27 -27 -27 -27 -27 -26 -26 -26 -26 -25 -25 -24 -24 -24 -23 -23 -23 -22 -21 -21 -21 -21 -22 -21 -21 -21 -22
-19 -20 -21 -22 -22 -23 -24 -24 -25 -26 -26 -27 -28 -28 -28 -28 -28 -29 -29 -29 -29 -28 -28 -28 -28 -27 -27 -27 -26 -26 -25 -25 -24 -23 -23 -23 -23 -23 -23 -23 -22 -22 -22 -22 -22 -23 -23
-19 -20 -22 -22 -23 -24 -24 -25 -26 -26 -27 -28 -28 -29 -29 -29 -29 -30 -30 -30 -31 -31 -30 -30 -29 -28 -28 -27 -27 -26 -26 -25 -25 -24 -24 -24 -24 -23 -24 -24 -23 -23 -24 -24 -24 -24 -24
Height
5696 5684 5673 5662 5651 5645 5640 5635 5630 5627 5624 5622 5621 5621 5623 5624 5626 5628 5629 5630 5633 5637 5639 5642 5644 5647 5652 5657 5662 5666 5670 5674 5679 5683 5687 5690 5694 5698 5701 5706 5710 5714 5719 5724 5728 5732 5735
5691 5680 5668 5657 5649 5641 5637 5633 5628 5625 5622 5619 5618 5618 5619 5621 5622 5623 5625 5625 5630 5632 5634 5637 5639 5643 5648 5653 5655 5660 5665 5670 5675 5678 5681 5685 5689 5692 5694 5698 5702 5707 5712 5717 5720 5725 5731
5688 5677 5666 5655 5646 5640 5635 5631 5627 5624 5621 5618 5617 5616 5616 5618 5620 5621 5622 5623 5626 5628 5631 5633 5635 5639 5644 5646 5651 5656 5661 5665 5668 5672 5676 5679 5682 5684 5689 5692 5695 5700 5705 5711 5715 5718 5725
5686 5675 5664 5654 5645 5640 5634 5630 5626 5623 5621 5617 5615 5615 5614 5615 5617 5618 5620 5621 5623 5625 5628 5630 5632 5636 5639 5642 5648 5652 5656 5660 5664 5667 5670 5672 5675 5677 5682 5685 5689 5693 5697 5703 5707 5710 5717
5684 5673 5663 5654 5645 5638 5632 5629 5625 5622 5620 5618 5614 5613 5613 5613 5613 5616 5617 5618 5620 5621 5623 5627 5630 5632 5635 5641 5645 5648 5651 5656 5659 5662 5664 5667 5670 5675 5677 5680 5684 5687 5691 5696 5702 5708 5716
5682 5672 5662 5654 5645 5638 5632 5627 5624 5620 5617 5616 5615 5611 5610 5610 5610 5611 5614 5615 5616 5617 5619 5623 5627 5629 5633 5637 5639 5643 5647 5651 5656 5657 5660 5663 5666 5671 5673 5673 5680 5687 5692 5696 5700 5706 5710
5680 5672 5662 5654 5645 5637 5631 5626 5621 5618 5614 5612 5611 5610 5607 5606 5606 5608 5610 5611 5615 5615 5616 5619 5624 5625 5628 5632 5635 5640 5643 5646 5649 5652 5655 5659 5662 5667 5674 5677 5679 5683 5686 5689 5694 5699 5704
5681 5671 5662 5653 5645 5637 5630 5624 5620 5615 5613 5609 5608 5608 5606 5604 5603 5604 5607 5608 5610 5612 5612 5615 5619 5623 5624 5627 5630 5634 5638 5642 5645 5649 5651 5654 5660 5667 5668 5669 5672 5676 5679 5683 5688 5693 5698
5680 5669 5660 5652 5644 5638 5629 5623 5619 5614 5610 5608 5605 5604 5604 5603 5600 5602 5603 5605 5606 5609 5609 5611 5614 5618 5622 5624 5627 5630 5634 5638 5641 5644 5648 5652 5660 5660 5661 5663 5666 5670 5674 5679 5684 5689 5692
5676 5668 5660 5651 5645 5638 5630 5624 5618 5613 5610 5607 5604 5601 5600 5601 5600 5598 5600 5603 5603 5604 5606 5608 5610 5614 5618 5620 5623 5627 5628 5632 5635 5640 5643 5646 5651 5653 5656 5660 5663 5666 5670 5673 5677 5681 5684
5675 5667 5659 5650 5643 5638 5631 5623 5617 5612 5608 5606 5602 5600 5598 5598 5598 5596 5598 5600 5600 5602 5602 5604 5606 5608 5612 5616 5621 5623 5626 5628 5632 5635 5639 5646 5647 5649 5651 5658 5659 5663 5667 5668 5670 5672 5675
5673 5664 5656 5649 5643 5636 5630 5623 5616 5612 5607 5604 5602 5599 5597 5597 5595 5595 5594 5595 5596 5599 5597 5599 5601 5603 5606 5610 5614 5616 5620 5623 5627 5629 5633 5636 5639 5642 5647 5649 5652 5656 5658 5662 5663 5664 5664
5671 5663 5655 5648 5642 5635 5629 5623 5616 5611 5607 5603 5601 5598 5595 5594 5593 5592 5592 5593 5594 5593 5596 5597 5597 5598 5600 5603 5607 5611 5614 5618 5621 5624 5627 5631 5634 5636 5640 5643 5645 5647 5652 5654 5656 5656 5661
5667 5659 5653 5645 5639 5634 5627 5621 5615 5611 5605 5602 5598 5597 5594 5593 5591 5589 5589 5590 5590 5589 5590 5592 5593 5594 5595 5597 5600 5604 5607 5611 5613 5617 5622 5624 5627 5631 5634 5637 5641 5644 5647 5648 5649 5651 5655
5664 5656 5649 5643 5637 5631 5625 5619 5615 5611 5605 5600 5596 5593 5591 5589 5588 5587 5586 5585 5584 5584 5586 5587 5588 5589 5591 5593 5595 5596 5599 5603 5607 5612 5616 5618 5620 5624 5627 5630 5634 5636 5635 5647 5646 5647 5648
5661 5652 5646 5641 5634 5628 5622 5618 5612 5607 5603 5599 5594 5588 5585 5583 5583 5582 5583 5581 5580 5580 5580 5580 5581 5582 5584 5586 5589 5589 5591 5596 5598 5603 5607 5610 5613 5615 5618 5622 5625 5628 5636 5636 5637 5638 5639
5656 5650 5644 5638 5631 5625 5619 5614 5609 5604 5601 5596 5590 5587 5583 5579 5576 5575 5575 5576 5575 5574 5573 5574 5574 5574 5576 5578 5581 5583 5585 5589 5590 5593 5597 5601 5604 5608 5611 5613 5617 5620 5623 5626 5630 5631 5632
5653 5646 5640 5633 5627 5621 5615 5610 5605 5600 5596 5591 5587 5582 5578 5575 5572 5568 5568 5567 5568 5568 5567 5567 5567 5567 5568 5569 5571 5574 5577 5581 5583 5585 5588 5592 5593 5597 5601 5605 5609 5612 5616 5618 5620 5623 5625
5648 5642 5635 5629 5623 5617 5611 5606 5602 5597 5591 5586 5582 5579 5575 5570 5567 5564 5561 5560 5559 5559 5559 5560 5560 5560 5561 5563 5564 5564 5568 5572 5574 5578 5580 5583 5583 5587 5591 5595 5598 5601 5606 5610 5612 5615 5617
5644 5636 5631 5624 5618 5612 5607 5601 5596 5592 5586 5582 5577 5572 5569 5566 5561 5557 5554 5553 5551 5550 5550 5550 5551 5552 5552 5553 5555 5556 5558 5561 5564 5567 5571 5573 5575 5577 5582 5587 5590 5593 5598 5601 5604 5605 5608
5637 5629 5622 5618 5613 5606 5600 5595 5589 5583 5579 5574 5568 5564 5559 5556 5554 5552 5548 5546 5543 5540 5541 5541 5543 5543 5543 5543 5544 5546 5549 5551 5554 5556 5559 5562 5566 5569 5572 5576 5578 5581 5585 5589 5592 5597 5598
5630 5623 5616 5610 5604 5598 5592 5588 5581 5575 5570 5566 5561 5559 5553 5549 5544 5541 5538 5538 5535 5533 5532 5532 5532 5532 5532 5534 5535 5536 5537 5540 5544 5548 5549 5552 5555 5559 5562 5565 5568 5571 5575 5578 5582 5585 5588
5621 5614 5608 5602 5596 5590 5584 5578 5572 5566 5561 5555 5551 5546 5542 5541 5536 5533 5530 5527 5525 5523 5523 5521 5521 5520 5521 5523 5524 5525 5527 5529 5531 5535 5540 5541 5546 5549 5551 5555 5558 5560 5565 5569 5573 5577 5580
5612 5606 5599 5593 5587 5581 5574 5569 5563 5556 5551 5545 5541 5538 5532 5531 5526 5522 5519 5516 5513 5510 5509 5508 5507 5507 5510 5509 5512 5514 5517 5518 5521 5524 5528 5531 5535 5538 5541 5544 5545 5552 5555 5559 5563 5566 5569
5604 5598 5591 5584 5577 5571 5565 5557 5551 5546 5540 5535 5530 5526 5521 5519 5514 5509 5505 5502 5499 5496 5495 5493 5493 5493 5495 5497 5497 5501 5505 5508 5511 5514 5516 5519 5523 5527 5530 5533 5537 5541 5545 5549 5552 5556 5559
5594 5587 5580 5574 5568 5561 5554 5547 5540 5533 5528 5522 5518 5513 5508 5503 5501 5494 5490 5485 5481 5479 5478 5478 5477 5477 5480 5481 5484 5486 5492 5497 5501 5504 5507 5510 5512 5517 5520 5522 5525 5530 5533 5537 5539 5545 5548
5585 5578 5570 5563 5556 5550 5542 5536 5529 5522 5516 5511 5505 5498 5493 5487 5483 5477 5472 5467 5463 5459 5458 5458 5459 5461 5463 5467 5471 5475 5479 5484 5489 5493 5499 5501 5504 5507 5508 5511 5515 5520 5523 5526 5531 5540 5537
5576 5568 5560 5552 5546 5539 5531 5525 5517 5510 5505 5499 5491 5484 5477 5470 5464 5457 5450 5444 5438 5435 5435 5438 5442 5445 5449 5453 5458 5464 5466 5472 5477 5482 5487 5492 5494 5498 5501 5504 5508 5512 5515 5520 5523 5524 5528
5564 5557 5550 5542 5534 5526 5520 5512 5504 5498 5490 5484 5478 5470 5461 5454 5445 5436 5425 5417 5413 5412 5415 5419 5425 5430 5435 5440 5446 5451 5457 5460 5466 5471 5476 5481 5486 5490 5495 5497 5501 5503 5507 5511 5514 5518 5521
Wind_Speed
61 60 54 45 36 31 28 29 22 19 19 17 17 19 24 29 28 31 32 23 21 23 23 23 22 26 28 29 31 33 35 33 32 29 28 27 28 29 29 30 30 34 37 41 41 43 43
60 60 53 42 33 31 26 25 19 18 18 16 16 18 23 23 27 30 27 29 18 22 23 23 22 23 26 26 31 32 32 29 28 28 26 24 26 30 31 31 32 34 39 42 44 44 42
60 59 54 42 31 29 24 22 19 18 17 17 15 17 17 21 22 27 26 24 21 21 24 23 21 22 24 28 29 30 28 27 29 26 25 27 29 31 30 32 35 36 40 43 44 44 43
59 58 55 44 33 27 23 21 19 17 17 16 15 15 15 21 21 24 25 24 21 18 25 25 23 21 24 28 28 28 26 25 25 26 27 29 31 33 33 36 37 40 42 45 46 46 45
58 57 57 48 37 28 24 22 21 20 17 16 14 14 16 19 23 24 22 23 20 18 25 24 23 21 25 24 27 28 26 25 26 27 28 28 31 32 34 36 39 41 45 46 46 44 41
55 56 56 52 40 29 25 22 22 20 19 17 16 14 15 18 20 21 22 21 20 18 26 24 24 23 22 25 29 29 28 28 27 27 29 30 30 30 33 38 38 36 38 41 41 40 38
53 55 53 53 46 35 26 24 22 22 20 18 17 17 16 16 18 17 18 20 21 19 20 26 25 24 24 25 27 27 28 29 30 30 29 27 30 27 24 28 31 34 35 38 39 39 39
52 51 51 50 48 40 31 25 21 20 21 19 18 19 18 14 16 15 17 19 19 18 9 28 26 25 26 27 27 26 27 28 30 27 27 28 22 22 28 31 32 35 37 38 37 37 37
50 48 48 48 47 43 36 27 23 20 19 18 17 18 18 15 15 15 17 19 20 18 17 19 30 28 28 27 27 25 25 25 26 27 25 24 18 25 32 34 34 35 36 36 35 33 33
47 46 46 46 45 43 40 32 23 20 18 15 16 15 16 15 14 15 17 16 20 21 19 18 29 31 30 29 28 28 28 28 28 26 25 27 27 29 30 33 33 34 34 35 34 35 37
48 47 45 43 42 42 41 35 26 21 16 15 16 18 14 13 14 13 14 18 20 22 20 21 26 35 32 32 29 28 29 28 28 28 29 25 28 30 31 30 33 33 34 36 36 38 39
49 46 44 41 40 39 37 37 32 22 17 13 15 15 11 12 12 12 16 24 24 24 21 22 22 31 36 35 33 33 33 30 31 31 31 32 31 32 30 30 33 35 38 39 39 40 44
49 47 45 40 38 35 35 34 34 28 20 15 16 13 12 13 13 14 16 17 21 23 21 20 20 23 31 39 42 36 34 32 33 33 32 34 34 34 34 33 38 41 40 41 42 44 42
49 47 44 39 36 34 32 31 31 31 26 19 17 18 14 14 12 16 18 17 19 26 28 20 17 24 22 27 35 41 41 41 36 33 31 32 35 33 33 37 36 38 41 44 44 44 42
49 46 43 39 36 34 31 29 28 28 27 25 19 20 20 18 16 14 19 21 19 16 23 25 26 27 22 26 29 34 43 42 39 36 37 32 33 34 34 36 38 40 44 39 43 44 46
49 47 43 39 35 34 31 28 26 26 26 25 24 20 21 23 23 22 17 16 15 17 19 25 32 33 32 27 27 27 33 41 44 45 43 40 40 37 35 38 40 42 38 41 44 46 47
48 46 44 41 39 35 33 30 26 25 25 25 25 24 21 21 25 27 25 20 17 19 21 21 24 33 34 34 30 30 30 29 39 42 47 46 44 42 38 43 40 41 43 45 44 48 48
48 46 43 42 39 37 33 31 30 27 25 25 26 24 24 22 23 28 28 28 24 21 22 23 25 22 26 32 34 35 33 32 34 34 36 42 47 49 46 43 43 40 47 44 46 46 48
48 45 43 40 39 38 36 33 31 30 28 27 27 27 26 26 25 26 28 28 30 26 25 24 25 27 29 31 30 36 36 37 35 32 35 36 41 47 50 50 50 48 44 44 50 44 45
47 45 44 40 38 39 40 38 35 33 31 29 29 29 29 30 27 26 26 28 30 31 30 29 27 27 30 32 36 37 38 36 38 43 42 40 37 40 46 48 49 50 48 46 42 47 50
48 46 44 44 41 39 41 42 40 38 35 32 31 29 31 31 31 30 29 27 26 30 32 32 31 30 32 33 33 42 42 44 38 35 38 43 43 39 37 41 46 51 50 51 51 50 52
49 48 47 45 44 42 42 42 42 41 39 36 33 31 31 31 31 32 30 29 29 27 29 27 35 32 35 36 37 35 36 48 43 40 38 42 37 37 40 36 41 46 44 43 44 45 47
49 50 49 47 46 45 44 43 42 42 40 38 35 33 33 33 34 34 35 33 34 34 34 33 32 38 36 37 39 40 39 36 41 50 44 38 47 38 41 41 39 41 41 42 40 39 40
51 51 51 50 49 47 46 45 43 43 42 40 37 35 34 36 38 40 40 40 40 41 41 41 41 40 39 44 41 39 40 38 33 41 48 49 42 46 43 46 47 43 40 41 41 41 43
52 54 53 52 51 49 48 47 45 43 43 42 39 37 37 37 40 44 47 48 46 45 46 45 44 45 44 42 42 45 39 41 36 33 32 43 49 49 49 51 49 42 43 42 43 44 43
54 54 55 54 54 52 50 49 46 45 44 43 41 39 39 41 43 46 48 52 52 51 50 49 46 45 44 44 44 43 46 41 43 40 35 32 40 47 48 43 42 46 48 48 46 45 46
55 57 57 55 55 54 52 51 48 46 46 45 43 43 44 48 46 46 48 51 53 54 54 51 47 44 43 45 44 43 43 43 43 43 38 36 33 37 49 47 42 43 43 42 44 43 40
56 59 59 57 56 56 53 51 49 47 49 48 47 48 49 49 50 51 55 61 59 55 51 45 43 42 40 42 43 43 40 42 41 42 42 44 36 30 27 27 33 36 36 38 34 33 34
58 61 59 58 57 57 54 52 50 48 50 50 50 51 52 53 56 62 63 48 40 37 38 37 39 41 37 39 42 41 42 41 39 40 40 40 43 36 27 22 24 26 27 24 22 21 22
Wind_Direction
347 349 350 343 335 334 326 328 324 326 319 298 287 270 252 254 247 256 254 252 235 239 240 238 235 231 227 226 226 222 228 231 236 239 240 238 233 228 227 225 224 219 214 214 219 222 223
349 352 354 345 338 335 327 330 336 339 326 309 298 284 252 257 243 254 266 264 244 243 237 236 231 229 225 221 221 219 224 228 233 235 235 231 228 225 222 217 217 218 214 211 216 223 222
352 354 357 350 340 341 329 332 338 343 340 324 300 292 260 256 257 253 262 274 271 237 239 233 230 225 221 220 219 219 221 224 232 229 227 223 219 220 220 218 217 215 216 211 215 220 221
353 357 358 355 344 343 335 326 322 333 337 337 318 286 276 255 257 254 260 263 275 248 233 230 223 221 216 221 220 218 218 221 227 228 228 225 221 220 216 218 216 214 215 214 214 219 220
354 358 359 360 353 344 343 328 318 311 320 331 332 301 269 261 258 260 263 265 266 233 230 229 218 213 219 218 218 219 220 218 221 223 226 227 228 226 221 219 218 217 219 217 215 218 222
354 357 360 2 360 346 341 337 326 309 305 312 320 327 292 269 260 259 260 262 271 273 223 224 222 210 213 215 217 216 219 222 222 225 227 228 229 229 226 224 223 225 226 226 223 222 222
352 357 360 3 3 353 341 338 334 322 307 301 309 315 316 286 268 257 258 260 262 263 221 218 218 210 210 213 218 222 221 222 226 226 227 230 233 234 235 233 228 226 225 227 227 225 225
352 355 359 2 3 360 347 338 335 328 319 303 294 300 307 301 278 257 258 258 258 258 228 223 219 219 207 213 215 217 221 225 230 231 231 229 232 225 224 224 227 225 223 225 225 226 228
353 352 357 359 1 5 355 341 336 330 325 325 303 284 297 293 285 266 239 262 264 260 246 219 221 218 218 214 213 212 218 223 226 228 231 235 224 230 225 224 225 227 224 226 228 226 231
351 351 355 355 358 4 4 351 339 333 316 326 324 304 286 286 285 274 248 255 267 271 242 235 218 221 220 222 219 216 215 216 223 226 226 228 221 227 228 232 231 229 230 226 226 225 226
350 351 353 353 356 360 4 2 347 338 321 324 330 322 298 279 285 278 252 251 260 262 256 246 230 218 219 224 222 223 227 224 225 225 229 231 230 230 232 232 229 227 230 231 229 229 229
350 351 351 351 353 355 360 5 360 344 331 315 329 330 316 293 285 271 246 244 280 243 249 241 239 227 222 221 225 222 225 226 226 228 229 226 225 227 225 222 226 230 227 229 230 232 232
349 350 350 349 349 352 354 359 3 357 342 310 302 323 319 315 284 274 265 256 261 260 249 246 236 239 233 226 218 218 227 229 230 230 230 231 229 227 221 225 224 227 228 231 231 233 233
348 350 349 346 346 349 350 352 355 359 353 336 311 293 302 309 309 273 271 266 268 264 267 245 253 241 242 238 231 219 215 223 223 228 228 231 232 233 230 226 232 239 234 235 233 233 236
347 347 347 345 345 345 347 347 347 348 351 351 333 307 287 285 290 291 273 279 286 270 260 262 263 262 244 241 240 239 229 222 218 224 229 233 233 229 230 229 229 230 232 236 241 242 244
345 344 345 345 345 344 344 344 343 340 339 340 345 326 303 287 280 280 284 287 281 268 263 257 251 259 258 249 240 241 238 237 222 220 224 227 230 235 225 228 231 233 235 235 237 242 244
341 343 343 343 343 344 343 340 339 338 334 331 328 330 322 300 284 277 278 277 280 278 268 259 258 253 252 263 247 237 236 240 244 235 223 223 229 231 227 227 232 236 236 236 237 243 246
339 339 340 339 340 341 340 339 335 334 332 327 323 320 318 309 295 283 277 273 270 271 267 265 254 250 244 250 253 247 240 241 239 243 245 238 231 228 231 230 226 233 236 239 242 247 250
335 335 335 335 335 335 334 334 333 330 327 324 320 317 312 306 300 290 283 276 270 268 264 256 255 254 236 242 249 256 248 244 237 237 241 243 243 239 230 230 228 228 233 238 243 246 249
331 330 330 329 328 328 326 326 326 324 322 320 315 311 308 305 298 293 287 282 280 268 259 260 255 253 253 236 230 235 249 250 245 243 243 244 243 245 242 240 236 232 234 235 234 240 244
327 326 324 325 324 323 322 321 320 319 317 314 310 309 302 301 299 293 284 282 279 278 267 253 254 252 249 248 247 226 233 246 247 244 245 249 247 246 247 248 245 240 240 240 242 241 242
324 323 322 322 320 319 318 318 317 317 314 311 307 305 298 295 296 293 287 279 277 277 278 274 251 248 251 249 248 247 247 238 234 239 247 247 252 246 247 246 246 248 245 245 248 250 252
320 320 320 320 318 318 317 316 317 316 314 309 306 303 297 290 286 286 286 283 280 278 273 277 272 257 250 246 246 248 247 246 244 235 238 237 241 250 252 252 254 248 245 245 247 250 254
316 318 318 318 318 318 318 317 316 315 315 309 304 299 292 289 286 285 282 280 281 281 280 277 275 270 261 253 242 246 245 246 247 241 240 238 233 246 247 251 250 246 248 249 249 251 253
315 317 316 317 318 318 318 316 317 317 315 310 303 298 291 289 283 282 283 281 279 277 278 277 274 272 256 253 252 239 240 246 243 234 248 243 241 239 244 249 248 246 251 248 249 249 251
312 314 315 317 318 318 319 318 318 316 315 309 305 301 293 294 289 284 282 280 279 277 276 274 272 264 255 247 247 249 237 238 241 245 247 253 244 241 243 243 241 241 246 248 246 245 246
311 314 314 316 318 318 318 319 318 316 313 309 306 303 299 300 296 289 285 283 280 276 274 270 265 256 250 244 243 247 238 236 239 239 243 252 254 241 238 237 234 236 236 239 245 247 247
311 312 313 315 318 317 318 319 318 315 314 310 307 307 307 304 300 297 296 293 285 275 269 262 252 247 248 242 240 241 244 235 235 235 235 239 241 239 236 235 229 233 239 244 242 241 242
311 311 313 315 316 316 318 318 316 316 313 312 310 311 309 307 306 306 303 294 284 273 259 249 243 239 242 241 237 237 243 233 232 235 234 239 244 242 237 232 235 226 230 235 241 246 252